{"data":{"norad_id":66834,"epoch":"2026-09-20T05:58:15.455136Z","epoch_age_seconds":105723,"freshness":"FRESH","line1":"1 66834U 25280P   26263.24878999  .00001423  00000+0  12703-3 0  9994","line2":"2 66834  70.0006 203.7160 0003304 263.5832  96.4950 14.98340741 45227","mean_motion":14.98340741,"eccentricity":0.0003304,"inclination_deg":70.0006,"raan_deg":203.716,"arg_perigee_deg":263.5832,"mean_anomaly_deg":96.495,"bstar":0.00012703,"rev_number":4522,"period_min":96.106310173408,"perigee_km":569.72634272959,"apogee_km":574.31900824315,"semimajor_km":6950.1596754864,"source":"CELESTRAK","updated_at":"2026-09-21T09:00:36.022187Z"}}